Location: Ostrava
(49.8330°N, 18.2830°E)
Time: 07:25:14
(UTC+02:00)

Vanguard 2 Rocket - Visible Passes

Search period start: 31 March 2015 00:00
Search period end: 10 April 2015 00:00
Orbit: 555 x 3332 km, 32.9° (Epoch: 29 March)

Date Brightness Start Highest point End Pass type
(mag) Time Alt. Az. Time Alt. Az. Time Alt. Az.
31 Mar 9.0 04:07:49 19° S 04:09:18 19° S 04:14:06 10° SE visible
01 Apr 9.2 03:12:08 19° SSE 03:12:08 19° SSE 03:16:12 10° SE visible
01 Apr 8.7 05:17:59 11° SW 05:23:30 20° S 05:27:48 10° SE visible
02 Apr 9.6 02:16:25 14° SE 02:16:25 14° SE 02:17:56 10° ESE visible
02 Apr 8.8 04:22:15 20° SSW 04:25:04 23° S 04:30:23 10° SE visible
03 Apr 9.0 03:26:30 25° S 03:26:30 25° S 03:32:41 10° SE visible
03 Apr 8.8 05:32:54 10° WSW 05:39:08 20° SSW 05:43:31 10° SSE visible
04 Apr 9.3 02:30:43 22° SE 02:30:43 22° SE 02:34:42 10° ESE visible
04 Apr 8.8 04:36:34 19° SW 04:40:45 25° S 04:46:19 10° SE visible
05 Apr 9.8 01:34:55 14° ESE 01:34:55 14° ESE 01:36:21 10° ESE visible
05 Apr 8.9 03:40:44 28° SSW 03:42:06 28° S 03:48:47 10° SE visible
06 Apr 9.1 02:44:53 29° SSE 02:44:53 29° SSE 02:50:58 10° ESE visible
06 Apr 8.8 04:50:43 16° SW 04:56:18 25° SSW 05:01:57 10° SSE visible
07 Apr 9.5 01:49:00 22° SE 01:49:00 22° SE 01:52:50 10° ESE visible
07 Apr 8.9 03:54:49 27° SW 03:57:42 30° S 04:04:36 10° SE visible
08 Apr 10.0 00:53:05 14° ESE 00:53:05 14° ESE 00:54:18 10° ESE visible
08 Apr 9.0 02:58:54 33° S 02:58:54 33° S 03:06:55 10° SE visible
08 Apr 9.0 05:04:44 13° WSW 05:11:42 22° SSW 05:17:15 10° SSE visible
08 Apr10.423:57:08ESE23:57:08ESE23:28:39SSWvisible
09 Apr 9.3 02:02:58 30° SSE 02:02:58 30° SSE 02:08:55 10° ESE visible
09 Apr 8.9 04:08:47 23° SW 04:13:09 29° SSW 04:20:10 10° SE visible
09 Apr 10.6 22:32:08 10° S 22:34:43 14° S 22:34:43 14° S visible
